User: anonymous   Login
Location: Sceptre
(50.8619°N, 109.2670°W)
Time: 09:11:36
(UTC+00:00)
Language:

Max Valier Satellite - Orbit

View from above orbital plane
View from above orbital plane
View from above satellite
View from above satellite

Ground track
Ground track

The orbit data is extracted from the following two-line orbital elements,

1 42778U 17036P   22180.11818356  .00004640  00000-0  17671-3 0  9990
2 42778  97.2037 220.8189 0008707 286.3224  73.7058 15.27174520278682
Epoch (UTC): 29 June 2022 02:50:11
Eccentricity: 0.0008707
inclination: 97.2037°
perigee height: 478 km
apogee height: 490 km
right ascension of ascending node: 220.8189°
argument of perigee: 286.3224°
revolutions per day: 15.27174520
mean anomaly at epoch: 73.7058°
orbit number at epoch: 27868

The dashed part of the orbit path shows where the satellite is in the earth's shadow,  

DLR